Location: Banios
(43.0451°N, 0.2335°E)
Time: 11:23:44
(UTC+00:00)

Envisat - Pass Details

Date: 14 December 2021
Orbit: 764 x 766 km, 98.2° (Epoch: 28 January)

Event Time Altitude Azimuth Distance (km) Brightness Sun altitude
Rises 05:59:34 0° 2° (N) 3,243 6.1 -14.6°
Reaches altitude 10° 06:02:08 10° 352° (N) 2,312 5.2 -14.2°
Maximum altitude 06:06:25 28° 294° (WNW) 1,397 3.8 -13.4°
Drops below altitude 10° 06:10:43 10° 236° (SW) 2,298 5.1 -12.7°
Sets 06:13:16 0° 225° (SW) 3,219 6.0 -12.2°
